GW0208 Weather Reports


time (UTC)temp
C
wind
direction
speed
KPH
gust
KPH
rain 1hr
cm
rain 24hr
cm
rain mn
cm
humidity
%
barometer
mb
20260502221006 10 0 0.0 0.0 0.00 0.18 0.18 100 1008.9
20260502220503 10 0 0.0 0.0 0.00 0.18 0.18 100 1009.1
20260502220003 10 0 0.0 0.0 0.00 0.18 0.18 100 1008.9
20260502215505 10 0 0.0 0.0 0.00 0.18 0.18 100 1008.9
20260502215218 10 0 0.0 0.0 0.00 0.18 0.18 100 1008.8
20260502214505 10 0 0.0 0.0 0.00 0.18 0.18 97 1008.8
20260502214005 10 0 0.0 0.0 0.00 0.18 0.18 97 1008.7
20260502213506 10 0 0.0 0.0 0.00 0.18 0.18 97 1008.8
20260502213217 10 0 0.0 0.0 0.00 0.18 0.18 97 1009.0
20260502212504 10 0 0.0 0.0 0.00 0.18 0.18 97 1008.8
20260502212221 10 0 0.0 0.0 0.00 0.18 0.18 97 1008.7
20260502211506 10 0 0.0 0.0 0.00 0.18 0.18 97 1009.0
20260502211005 10 0 0.0 0.0 0.00 0.18 0.18 97 1008.9
20260502210504 10 0 0.0 0.0 0.00 0.18 0.18 97 1009.0
20260502210003 10 0 0.0 0.0 0.00 0.18 0.18 97 1008.9
20260502205503 10 0 0.0 0.0 0.00 0.18 0.18 97 1008.8
20260502205003 10 0 0.0 0.0 0.00 0.18 0.18 97 1009.0
20260502204503 10 0 0.0 0.0 0.00 0.18 0.18 97 1009.0
20260502204005 10 0 0.0 0.0 0.00 0.18 0.18 97 1008.9
20260502203505 10 0 0.0 0.0 0.00 0.18 0.18 97 1008.9
20260502203217 10 0 0.0 0.0 0.00 0.18 0.18 97 1009.0
20260502202505 10 0 0.0 0.0 0.00 0.18 0.18 97 1009.0
20260502202005 10 0 0.0 0.0 0.03 0.18 0.18 96 1009.2
20260502201505 11 0 0.0 0.0 0.03 0.18 0.18 96 1009.0
20260502201219 11 0 0.0 0.0 0.03 0.18 0.18 96 1008.9
20260502200505 11 0 0.0 0.0 0.03 0.18 0.18 96 1009.1
20260502200005 11 0 0.0 0.0 0.03 0.18 0.18 96 1009.0
20260502195503 11 0 0.0 0.0 0.03 0.18 0.18 96 1009.0
20260502195006 11 0 0.0 0.0 0.05 0.18 0.18 96 1008.9
20260502194503 11 0 0.0 0.0 0.05 0.18 0.18 96 1009.1
20260502194219 11 0 0.0 0.0 0.05 0.18 0.18 96 1009.0
20260502193720 11 0 0.0 0.0 0.05 0.18 0.18 96 1009.1
20260502193005 11 0 0.0 0.0 0.08 0.18 0.18 96 1009.0
20260502192505 11 0 0.0 0.0 0.08 0.18 0.18 96 1009.1
20260502192003 11 0 0.0 0.0 0.08 0.15 0.15 95 1009.2
20260502191505 11 0 0.0 0.0 0.08 0.15 0.15 95 1009.4
20260502191219 11 0 0.0 0.0 0.08 0.15 0.15 95 1009.2
20260502190505 11 0 0.0 0.0 0.10 0.15 0.15 95 1009.1
20260502190005 11 0 0.0 0.0 0.10 0.15 0.15 95 1009.4
20260502185503 11 0 0.0 0.0 0.10 0.15 0.15 95 1009.4
20260502185003 11 0 0.0 0.0 0.10 0.13 0.13 95 1009.4
20260502184503 11 170 0.0 3.2 0.10 0.13 0.13 95 1009.4
20260502184218 11 170 0.0 3.2 0.10 0.13 0.13 95 1009.4
20260502183503 11 197 0.0 3.2 0.10 0.10 0.10 94 1009.6
20260502183003 11 191 0.0 3.2 0.10 0.10 0.10 94 1009.6
20260502182505 11 156 1.6 6.4 0.10 0.10 0.10 94 1009.6
20260502182005 11 147 1.6 11.3 0.08 0.08 0.08 93 1009.4
20260502181505 11 150 1.6 11.3 0.08 0.08 0.08 93 1009.6
20260502181006 11 164 0.0 3.2 0.05 0.05 0.05 93 1009.6
20260502180723 11 150 0.0 6.4 0.05 0.05 0.05 93 1009.5
20260502170220 12 172 4.8 14.5 0.00 0.00 0.00 86 1010.0
20260502164003 13 183 4.8 11.3 0.00 0.00 0.00 85 1010.2
20260502163505 13 167 4.8 11.3 0.00 0.00 0.00 84 1010.3
20260502163005 13 160 4.8 14.5 0.00 0.00 0.00 83 1010.2
20260502162503 13 166 4.8 14.5 0.00 0.00 0.00 81 1010.2
20260502162219 13 164 4.8 14.5 0.00 0.00 0.00 81 1010.2
20260502161505 13 165 6.4 19.3 0.00 0.00 0.00 79 1010.2
20260502161004 13 174 4.8 19.3 0.00 0.00 0.00 79 1010.1
20260502160505 13 179 6.4 19.3 0.00 0.00 0.00 79 1010.4
20260502160219 13 175 6.4 19.3 0.00 0.00 0.00 79 1010.3
20260502152217 14 206 3.2 11.3 0.00 0.00 0.00 79 1010.5
20260502151503 14 179 4.8 11.3 0.00 0.00 0.00 78 1010.4
20260502151005 15 163 4.8 11.3 0.00 0.00 0.00 78 1010.6
20260502150505 15 159 3.2 11.3 0.00 0.00 0.00 77 1010.7
20260502130719 15 165 6.4 19.3 0.00 0.00 0.00 74 1011.9
20260502130218 15 201 6.4 14.5 0.00 0.00 0.00 74 1011.9
20260502123717 15 183 6.4 22.5 0.00 0.00 0.00 78 1012.1
20260502123005 15 167 8.0 22.5 0.00 0.00 0.00 79 1012.3
20260502122505 14 165 8.0 25.7 0.00 0.00 0.00 79 1012.2
20260502122218 14 172 8.0 25.7 0.00 0.00 0.00 78 1012.4
20260502121505 15 153 11.3 22.5 0.00 0.00 0.00 77 1012.7
20260502121003 15 161 11.3 22.5 0.00 0.00 0.00 78 1012.5
20260502120721 15 182 9.7 22.5 0.00 0.00 0.00 79 1012.7
20260502120219 15 183 6.4 22.5 0.00 0.00 0.00 77 1012.5
20260502115505 15 162 6.4 14.5 0.00 0.00 0.00 78 1012.5
20260502115005 15 134 6.4 22.5 0.00 0.00 0.00 79 1012.7
20260502114721 14 150 8.0 22.5 0.00 0.00 0.00 78 1012.8
20260502114005 14 162 6.4 19.3 0.00 0.00 0.00 79 1012.7
20260502113505 14 155 8.0 19.3 0.00 0.00 0.00 79 1012.9
20260502113218 14 149 8.0 19.3 0.00 0.00 0.00 79 1012.9
20260502112505 13 151 8.0 22.5 0.00 0.00 0.00 81 1013.0
20260502112005 13 163 8.0 22.5 0.00 0.00 0.00 81 1013.2
20260502111505 14 171 8.0 22.5 0.00 0.00 0.00 81 1013.3
20260502111005 13 166 8.0 29.0 0.00 0.00 0.00 82 1013.3
20260502110719 13 158 11.3 29.0 0.00 0.00 0.00 81 1013.2
20260502110005 14 164 9.7 22.5 0.00 0.00 0.00 80 1013.4
20260502105503 14 173 9.7 19.3 0.00 0.00 0.00 79 1013.7
20260502105005 14 184 9.7 19.3 0.00 0.00 0.00 79 1013.6
20260502104505 14 174 8.0 19.3 0.00 0.00 0.00 79 1013.5
20260502104005 14 168 8.0 19.3 0.00 0.00 0.00 79 1013.5
20260502103505 14 171 8.0 29.0 0.00 0.00 0.00 79 1013.6
20260502103005 14 174 8.0 29.0 0.00 0.00 0.00 79 1013.6
20260502102505 14 178 8.0 19.3 0.00 0.00 0.00 79 1013.5
20260502102005 14 166 6.4 19.3 0.00 0.00 0.00 79 1013.6
20260502101505 14 164 8.0 19.3 0.00 0.00 0.00 78 1013.5
20260502101005 14 178 6.4 19.3 0.00 0.00 0.00 76 1013.6
20260502100505 15 178 6.4 19.3 0.00 0.00 0.00 77 1013.7
20260502091503 13 140 11.3 29.0 0.00 0.00 0.00 83 1013.5
20260502091003 13 151 9.7 25.7 0.00 0.00 0.00 81 1013.5
20260502090503 13 176 9.7 29.0 0.00 0.00 0.00 81 1013.6
20260502071504 11 177 8.0 19.3 0.00 0.00 0.00 93 1014.4
20260502071005 11 163 6.4 19.3 0.00 0.00 0.00 94 1014.1
20260502070505 11 165 3.2 19.3 0.00 0.00 0.00 94 1014.0
20260502070005 11 182 0.0 11.3 0.00 0.00 0.00 95 1014.1
20260502065719 11 182 0.0 11.3 0.00 0.00 0.00 95 1014.2
20260502065220 11 158 0.0 14.5 0.00 0.00 0.00 96 1014.4
20260502064719 11 161 1.6 14.5 0.00 0.00 0.00 96 1014.2
20260502064003 11 166 1.6 14.5 0.00 0.00 0.00 96 1014.4
20260502063505 11 158 1.6 14.5 0.00 0.00 0.00 96 1014.3
20260502063005 11 144 0.0 11.3 0.00 0.00 0.00 96 1014.3
20260502062505 11 173 0.0 6.4 0.00 0.00 0.00 96 1014.3
20260502062005 11 175 0.0 6.4 0.00 0.00 0.00 96 1014.4
20260502061006 11 154 0.0 6.4 0.00 0.00 0.00 97 1014.6
20260502060505 11 155 0.0 6.4 0.00 0.00 0.00 96 1014.5
20260502060006 11 162 0.0 6.4 0.00 0.00 0.00 96 1014.4
20260502055506 10 158 1.6 6.4 0.00 0.00 0.00 96 1014.6
20260502055220 10 159 0.0 6.4 0.00 0.00 0.00 96 1014.7
20260502054503 10 0 0.0 0.0 0.00 0.00 0.00 96 1014.6
20260502054005 10 0 0.0 0.0 0.00 0.00 0.00 96 1014.6
20260502053718 10 0 0.0 0.0 0.00 0.00 0.00 96 1014.6
20260502053003 10 0 0.0 0.0 0.00 0.00 0.00 96 1014.6
20260502052505 10 0 0.0 0.0 0.00 0.00 0.00 96 1014.5
20260502052003 10 0 0.0 0.0 0.00 0.00 0.00 96 1014.6
20260502051503 10 0 0.0 0.0 0.00 0.00 0.00 96 1014.8
20260502051005 10 0 0.0 0.0 0.00 0.00 0.00 96 1014.4
20260502050505 10 0 0.0 0.0 0.00 0.00 0.00 96 1014.6
20260502050003 10 0 0.0 0.0 0.00 0.00 0.00 96 1014.6
20260502045718 10 0 0.0 0.0 0.00 0.00 0.00 96 1014.6
20260502045003 10 0 0.0 0.0 0.00 0.00 0.00 96 1014.7
20260502044718 10 0 0.0 0.0 0.00 0.00 0.00 96 1014.6
20260502044003 10 0 0.0 0.0 0.00 0.00 0.00 96 1014.8
20260502043503 9 0 0.0 0.0 0.00 0.00 0.00 96 1014.7
20260502043003 9 0 0.0 0.0 0.00 0.00 0.00 96 1014.6
20260502042503 10 0 0.0 0.0 0.00 0.00 0.00 96 1014.5
20260502042005 10 0 0.0 0.0 0.00 0.00 0.00 96 1014.6
20260502041505 10 0 0.0 0.0 0.00 0.00 0.00 96 1014.7
20260502041003 10 0 0.0 0.0 0.00 0.00 0.00 96 1014.9
20260502040720 10 0 0.0 0.0 0.00 0.00 0.00 96 1014.7
20260502040005 10 0 0.0 0.0 0.00 0.00 0.00 96 1014.8
20260502035503 10 0 0.0 0.0 0.00 0.00 0.00 96 1014.9
20260502035005 10 0 0.0 0.0 0.00 0.00 0.00 96 1014.7
20260502034505 10 0 0.0 0.0 0.00 0.00 0.00 96 1014.9
20260502034005 10 0 0.0 0.0 0.00 0.00 0.00 96 1014.8
20260502033505 10 0 0.0 0.0 0.00 0.00 0.00 96 1014.9
20260502033003 10 0 0.0 0.0 0.00 0.00 0.00 96 1014.9
20260502032503 10 0 0.0 0.0 0.00 0.00 0.00 96 1015.1
20260502032006 10 0 0.0 0.0 0.00 0.00 0.00 96 1015.1
20260502031505 10 0 0.0 0.0 0.00 0.00 0.00 96 1015.0
20260502031005 10 0 0.0 0.0 0.00 0.00 0.00 96 1015.3
20260502030503 10 0 0.0 0.0 0.00 0.00 0.00 96 1015.3
20260502030218 10 0 0.0 0.0 0.00 0.00 0.00 96 1015.3
20260502025505 10 0 0.0 0.0 0.00 0.00 0.00 96 1015.4
20260502025005 10 0 0.0 0.0 0.00 0.00 0.00 96 1015.2
20260502024717 10 169 0.0 6.4 0.00 0.00 0.00 96 1015.4
20260502024005 10 175 0.0 6.4 0.00 0.00 0.00 96 1015.5
20260502023503 10 159 1.6 6.4 0.00 0.00 0.00 96 1015.6
20260502023005 10 159 1.6 6.4 0.00 0.00 0.00 96 1015.5
20260502022503 10 0 0.0 0.0 0.00 0.00 0.00 96 1015.6
20260502022003 10 0 0.0 0.0 0.00 0.00 0.00 96 1015.8
20260502021505 10 168 0.0 6.4 0.00 0.00 0.00 96 1015.5
20260502021005 10 169 1.6 11.3 0.00 0.00 0.00 95 1015.7
20260502020506 10 170 1.6 11.3 0.00 0.00 0.00 95 1015.9
20260502020005 10 166 0.0 3.2 0.00 0.00 0.00 95 1015.6
20260502015505 11 165 0.0 3.2 0.00 0.00 0.00 95 1015.8
20260502015003 11 165 0.0 3.2 0.00 0.00 0.00 95 1015.8
20260502014719 11 186 0.0 6.4 0.00 0.00 0.00 95 1016.1
20260502014005 11 192 0.0 6.4 0.00 0.00 0.00 95 1016.0
20260502013717 11 0 0.0 0.0 0.00 0.00 0.00 95 1016.0
20260502013005 11 144 0.0 3.2 0.00 0.00 0.00 95 1016.2
20260502012503 11 163 0.0 11.3 0.00 0.00 0.00 94 1016.1
20260502012005 11 167 1.6 11.3 0.00 0.00 0.00 94 1016.3
20260502011505 11 180 1.6 6.4 0.00 0.00 0.00 94 1016.3
20260502011003 11 184 0.0 6.4 0.00 0.00 0.00 94 1016.4
20260502010504 11 190 1.6 6.4 0.00 0.00 0.00 94 1016.5
20260502010005 11 190 1.6 6.4 0.00 0.00 0.00 94 1016.6
20260502005503 11 0 0.0 0.0 0.00 0.00 0.00 94 1016.6
20260502005005 11 0 0.0 0.0 0.00 0.00 0.00 94 1016.8
20260502004503 11 0 0.0 0.0 0.00 0.00 0.00 94 1016.8
20260502004005 11 0 0.0 0.0 0.00 0.00 0.00 94 1017.0
20260502003503 11 0 0.0 0.0 0.00 0.00 0.00 94 1016.8
20260502003219 11 0 0.0 0.0 0.00 0.00 0.00 94 1016.7
20260502002505 11 0 0.0 0.0 0.00 0.00 0.00 94 1016.8
20260502002003 11 0 0.0 0.0 0.00 0.00 0.00 94 1016.8
20260502001718 11 0 0.0 0.0 0.00 0.00 0.00 94 1016.9
20260502001003 11 187 0.0 3.2 0.00 0.00 0.00 94 1016.7
20260502000505 11 178 0.0 6.4 0.00 0.00 0.00 94 1016.9
20260502000005 11 170 0.0 6.4 0.00 0.00 0.00 94 1016.8
20260501235718 11 170 0.0 6.4 0.00 0.00 0.00 94 1016.8
20260501235003 11 160 0.0 3.2 0.00 0.00 0.00 94 1017.0
20260501234503 11 160 0.0 3.2 0.00 0.00 0.00 94 1016.8
20260501234005 11 158 1.6 6.4 0.00 0.00 0.00 94 1016.7
20260501233506 11 159 0.0 6.4 0.00 0.00 0.00 94 1016.7
20260501233003 11 170 0.0 6.4 0.00 0.00 0.00 94 1017.2
20260501232512 11 171 0.0 6.4 0.00 0.00 0.00 94 1017.1
20260501232005 11 0 0.0 0.0 0.00 0.00 0.00 94 1017.3
20260501231503 11 169 0.0 6.4 0.00 0.00 0.00 94 1017.2
20260501231005 11 171 1.6 6.4 0.00 0.00 0.00 94 1017.2
20260501230505 11 177 1.6 6.4 0.00 0.00 0.00 94 1017.2
20260501230006 11 182 1.6 11.3 0.00 0.00 0.00 94 1017.2
20260501225505 11 187 1.6 11.3 0.00 0.00 0.00 94 1017.2
20260501225217 11 192 1.6 11.3 0.00 0.00 0.00 94 1017.4
20260501224503 11 187 1.6 6.4 0.00 0.00 0.00 94 1017.5
20260501224005 11 177 3.2 11.3 0.00 0.00 0.00 94 1017.4
20260501223720 11 166 3.2 11.3 0.00 0.00 0.00 94 1017.1
20260501223219 11 164 3.2 6.4 0.00 0.00 0.00 94 1017.3
20260501222505 11 175 1.6 6.4 0.00 0.00 0.00 94 1017.4
20260501222003 11 176 1.6 6.4 0.00 0.00 0.00 94 1017.2
20260501221503 11 189 1.6 6.4 0.00 0.00 0.00 94 1017.3